Home > Time Zones > World Clock > Weather > Japan > Naha > Past weeks

Flag for Japan Weather past 2 weeks in Naha, Okinawa, Japan

Now
88 °F

Scattered showers. Partly sunny.


Feels Like: 98 °F
Forecast: 82 / 87 °F
Wind: 9 mph from Southwest

Location: Naha Airport

Current Time: Sep 3, 2014 at 9:54:56 AM

Latest Report: Sep 3, 2014 at 9:30 AM


Visibility: N/A

Pressure: 29.83 "Hg

Humidity: 66%

Dew point: 75 °F

Location of NahaLocation

Historic Weather in Naha — Graph

°F

Naha temperature yesterday

Maximum temperature yesterday: 88 °F (at 10:30 AM)
Minimum temperature yesterday: 82 °F (at 12:30 AM)
Average temperature yesterday: 85 °F

Past Weeks' High & Low Weather Summary

 TemperatureHumidityPressure
High90 °F (Aug 25, 11:30 AM)89% (Aug 19, 10:30 PM)29.95 "Hg (Aug 19, 10:30 PM)
Low79 °F (Aug 30, 2:30 PM)62% (Aug 27, 1:00 PM)29.80 "Hg (Aug 22, 5:00 PM)
Average85 °F76%29.88 "Hg
* Reported Aug 19 8:00 AM — Sep 3 8:30 AM, Naha, Weather by CustomWeather, © 2014

Note: Actual official high and low records may vary slightly from our data, if they occured in-between our weather recording intervals... More about our weather records

Advertising

Naha weather history for previous 24 hours

 ConditionsComfort  
Time TempWeatherWind HumidityBarometerVisibility
8:30 AM
Sep 3
86 °FScattered showers. Scattered clouds.5 mph70%29.83 "HgN/A
8:00 AM86 °FScattered showers. Scattered clouds.3 mph75%29.83 "HgN/A
7:30 AM84 °FScattered showers. Scattered clouds.2 mph79%29.83 "HgN/A
7:00 AM84 °FScattered clouds.3 mph79%29.80 "HgN/A
6:30 AM82 °FScattered clouds.3 mph79%29.80 "HgN/A
6:00 AM82 °FPassing clouds.3 mph79%29.80 "HgN/A
5:30 AM82 °FPassing clouds.3 mph79%29.80 "HgN/A
5:00 AM82 °FPassing clouds.2 mph79%29.80 "HgN/A
4:00 AM82 °FScattered showers. Passing clouds.6 mph79%29.80 "HgN/A
3:30 AM84 °FRain showers. Passing clouds.3 mph74%29.80 "HgN/A
3:00 AM84 °FPassing clouds.2 mph74%29.80 "HgN/A
2:30 AM82 °FScattered showers. Passing clouds.1 mph79%29.83 "HgN/A
2:00 AM82 °FScattered showers. Passing clouds.2 mph79%29.83 "HgN/A
1:30 AM84 °FScattered showers. Passing clouds.3 mph74%29.83 "HgN/A
1:00 AM84 °FPassing clouds.5 mph74%29.83 "HgN/A
12:30 AM84 °FPassing clouds.3 mph74%29.83 "HgN/A
12:00 AM84 °FPassing clouds.3 mph74%29.83 "HgN/A
11:30 PM
Sep 2
84 °FPassing clouds.3 mph74%29.83 "HgN/A
11:00 PM84 °FPassing clouds.3 mph74%29.86 "HgN/A
10:30 PM84 °FPassing clouds.5 mph74%29.83 "HgN/A
10:00 PM84 °FPassing clouds.3 mph74%29.83 "HgN/A
9:30 PM84 °FPassing clouds.5 mph74%29.83 "HgN/A
9:00 PM84 °FPassing clouds.6 mph74%29.83 "HgN/A
8:30 PM86 °FPassing clouds.7 mph70%29.83 "HgN/A
8:00 PM86 °FPassing clouds.7 mph70%29.83 "HgN/A
7:30 PM86 °FPassing clouds.3 mph70%29.83 "HgN/A
7:00 PM86 °FPassing clouds.2 mph70%29.83 "HgN/A
6:30 PM86 °FPartly sunny.3 mph70%29.83 "HgN/A
6:00 PM86 °FPartly sunny.6 mph75%29.83 "HgN/A
5:30 PM86 °FPartly sunny.7 mph75%29.83 "HgN/A
5:00 PM86 °FPartly sunny.6 mph75%29.83 "HgN/A
4:30 PM88 °FPartly sunny.7 mph70%29.83 "HgN/A
4:00 PM88 °FPartly sunny.7 mph70%29.83 "HgN/A
3:30 PM88 °FPartly sunny.7 mph66%29.83 "HgN/A
3:00 PM88 °FScattered showers. Partly sunny.6 mph66%29.83 "HgN/A
2:30 PM88 °FPartly sunny.7 mph70%29.83 "HgN/A
2:00 PM88 °FPartly sunny.6 mph70%29.83 "HgN/A
1:30 PM88 °FPartly sunny.6 mph75%29.83 "HgN/A
1:00 PM86 °FPartly sunny.5 mph75%29.86 "HgN/A
12:30 PM88 °FScattered showers. Partly sunny.6 mph70%29.86 "HgN/A
12:00 PM88 °FScattered showers. Partly sunny.7 mph75%29.86 "HgN/A
11:30 AM88 °FScattered showers. Partly sunny.6 mph75%29.86 "HgN/A
11:00 AM88 °FPartly sunny.6 mph70%29.86 "HgN/A
10:30 AM88 °FPartly sunny.5 mph70%29.86 "HgN/A
10:00 AM86 °FPartly sunny.3 mph75%29.86 "HgN/A
9:30 AM86 °FPartly sunny.3 mph75%29.86 "HgN/A
9:00 AM86 °FPartly sunny.3 mph75%29.86 "HgN/A
Weather by CustomWeather, © 2014

See weather overviewHow to use our weather pages